Location: STAR School
(35.3054°N, 111.2976°W)
Time: 10:19:11
(UTC-07:00)

Transit 2A Rocket - Pass Details

Date: 27 May 2019
Orbit: 586 x 917 km, 66.7° (Epoch: 23 June)

Event Time Altitude Azimuth Distance (km) Brightness Sun altitude
Rises 02:00:53 0° 334° (NNW) 3,354 8.8 -28.8°
Reaches altitude 10° 02:03:26 10° 335° (NNW) 2,368 8.0 -28.5°
Enters shadow 02:08:26 72° 11° (N) 781 5.0 -28.1°
